Flag Weather past 2 weeks in Mühlhausen/Thüringen, Thuringia, Germany

Now
38 °F

Fog.


Feels Like: 38 °F
Forecast: 36 / 51 °F
Wind: 2 mph from Southeast

Location: Erfurt-Bindersleben

Current Time: Nov 22, 2014 at 4:56:04 PM

Latest Report: Nov 22, 2014 at 4:00 PM


Visibility: 4 mi

Pressure: 30.21 "Hg

Humidity: 95%

Dew point: 37 °F

Location of Mühlhausen/ThüringenLocation

Historic Weather in Mühlhausen/Thüringen — Graph

°F

Mühlhausen/Thüringen temperature yesterday

Maximum temperature yesterday: 40 °F (at 12:00 PM)
Minimum temperature yesterday: 38 °F (at 12:00 AM)
Average temperature yesterday: 39 °F

Past Weeks' High & Low Weather Summary

 TemperatureHumidityPressure
High53 °F (Nov 14, 3:00 PM)100% (Nov 10, 1:00 AM)30.37 "Hg (Nov 10, 1:00 AM)
Low32 °F (Nov 22, 8:00 AM)72% (Nov 8, 3:00 PM)29.53 "Hg (Nov 16, 1:00 PM)
Average43 °F94%29.92 "Hg
* Reported Nov 7 4:00 PM — Nov 22 4:00 PM, Mühlhausen/Thüringen, Weather by CustomWeather, © 2014

Note: Actual official high and low records may vary slightly from our data, if they occured in-between our weather recording intervals... More about our weather records

Advertising

Mühlhausen/Thüringen weather history for previous 24 hours

 ConditionsComfort  
Time TempWeatherWind HumidityBarometerVisibility
4:00 PM
Nov 22
38 °FFog.2 mph95%30.21 "Hg4 mi
3:00 PM38 °FFog.2 mph96%30.20 "Hg4 mi
2:00 PM37 °FFog.2 mph99%30.21 "Hg1 mi
1:00 PM39 °FFog.2 mph93%30.22 "Hg5 mi
12:00 PM37 °FFog.2 mph97%30.23 "Hg1 mi
11:00 AM35 °FFog.2 mph98%30.24 "Hg0 mi
10:00 AM37 °FFog.1 mph95%30.22 "Hg1 mi
9:00 AM34 °FFog.5 mph100%30.22 "Hg3 mi
8:00 AM32 °FFog.5 mph100%30.23 "Hg1 mi
7:00 AM33 °FFog.5 mph100%30.22 "Hg0 mi
6:00 AM32 °FFog.6 mph100%30.21 "Hg0 mi
5:00 AM33 °FFog.2 mph98%30.22 "Hg5 mi
4:00 AM35 °FPassing clouds.1 mph92%30.22 "Hg16 mi
3:00 AM36 °FPassing clouds.2 mph92%30.22 "Hg16 mi
2:00 AM37 °FPassing clouds.2 mph91%30.23 "Hg16 mi
1:00 AM39 °FOvercast.1 mph88%30.24 "Hg16 mi
12:00 AM39 °FOvercast.2 mph89%30.24 "Hg16 mi
11:00 PM
Nov 21
39 °FOvercast.2 mph90%30.25 "Hg12 mi
10:00 PM40 °FOvercast.2 mph89%30.25 "Hg12 mi
9:00 PM40 °FOvercast.1 mph88%30.25 "Hg12 mi
8:00 PM40 °FOvercast.2 mph89%30.24 "Hg9 mi
7:00 PM40 °FOvercast.2 mph89%30.25 "Hg9 mi
6:00 PM40 °FOvercast.2 mph93%30.25 "Hg8 mi
5:00 PM40 °FOvercast.2 mph93%30.26 "Hg8 mi
4:00 PM40 °FOvercast.3 mph93%30.26 "Hg9 mi
Weather by CustomWeather, © 2014

See weather overviewHow to use our weather pages